Location: Caltech
(34.1382°N, 118.1253°W)
Time: 17:07:18
(UTC-07:00)

Iridium 68 - Visible Passes

Search period start: 21 September 2014 00:00
Search period end: 01 October 2014 00:00
Orbit: 776 x 779 km, 86.4° (Epoch: 21 September)

Date Brightness Start Highest point End Pass type
(mag) Time Alt. Az. Time Alt. Az. Time Alt. Az.
21 Sep 6.0 19:23:47 10° SSE 19:28:53 61° E 19:34:01 10° N visible
21 Sep 9.2 21:08:02 10° W 21:10:00 12° WNW 21:11:58 10° NW visible
22 Sep 9.4 05:59:45 10° NE 06:02:16 13° ENE 06:04:46 10° ESE visible
22 Sep 8.4 20:32:04 10° SW 20:36:11 24° W 20:40:20 10° NNW visible
23 Sep 7.2 19:57:33 10° SSW 20:02:30 45° W 20:07:30 10° NNW visible
24 Sep 6.1 19:23:45 10° S 19:28:57 89° W 19:34:10 10° N visible
25 Sep 9.1 05:58:44 10° NNE 06:02:32 20° E 06:06:19 10° SE visible
25 Sep 9.0 20:33:19 10° WSW 20:36:26 16° WNW 20:39:34 10° NW visible
26 Sep 8.1 19:58:08 10° SW 20:02:40 30° W 20:07:14 10° NNW visible
27 Sep 6.7 19:23:56 10° SSW 19:29:02 59° W 19:34:11 10° N visible
28 Sep 8.3 05:58:12 10° NNE 06:02:45 30° E 06:07:15 10° SE visible
28 Sep 9.5 20:36:07 10° W 20:36:44 10° WNW 20:37:21 10° WNW visible
29 Sep 9.2 05:25:55 10° NE 05:28:59 16° ENE 05:32:02 10° ESE visible
29 Sep 8.8 19:59:03 10° SW 20:02:53 21° W 20:06:44 10° NNW visible
30 Sep 7.6 19:24:20 10° SSW 19:29:11 39° W 19:34:03 10° NNW visible
